EW1631 Weather Reports


Display with metric or nautical units.
time (UTC)temp
F
wind
direction
speed
MPH
gust
MPH
rain 1hr
in
rain 24hr
in
rain mn
in
humidity
%
barometer
mb
20260504023007 71 256 26.0 41.0 0.00 0.00 0.00 43 1004.5
20260504021503 72 297 25.0 38.0 0.00 0.00 0.00 41 1004.0
20260504020048 74 298 25.0 41.0 0.00 0.00 0.00 40 1003.5
20260504014542 75 301 27.0 38.0 0.00 0.00 0.00 39 1003.6
20260504013018 76 284 19.0 32.0 0.00 0.00 0.00 36 1003.9
20260504011514 82 332 18.0 27.0 0.00 0.00 0.00 29 1003.6
20260504010057 87 219 4.0 14.0 0.00 0.00 0.00 15 1003.4
20260504004556 87 282 6.0 11.0 0.00 0.00 0.00 18 1003.2
20260504003037 88 291 6.0 17.0 0.00 0.00 0.00 20 1002.9
20260504001547 88 257 6.0 15.0 0.00 0.00 0.00 22 1003.3
20260504000019 87 286 12.0 20.0 0.00 0.00 0.00 25 1003.1
20260503234518 88 299 11.0 18.0 0.00 0.00 0.00 24 1003.0
20260503233100 87 287 15.0 23.0 0.00 0.00 0.00 26 1002.9
20260503231600 87 302 14.0 26.0 0.00 0.00 0.00 26 1002.6
20260503230047 88 283 15.0 26.0 0.00 0.00 0.00 26 1002.8
20260503224545 90 301 12.0 21.0 0.00 0.00 0.00 23 1002.8
20260503223043 92 246 7.0 14.0 0.00 0.00 0.00 21 1002.9
20260503221555 93 270 8.0 18.0 0.00 0.00 0.00 21 1003.0
20260503220042 91 346 8.0 21.0 0.00 0.00 0.00 22 1003.3
20260503214539 95 212 8.0 13.0 0.00 0.00 0.00 18 1003.4
20260503213041 95 225 4.0 17.0 0.00 0.00 0.00 13 1003.7
20260503211538 95 162 11.0 25.0 0.00 0.00 0.00 13 1003.6
20260503210018 95 165 14.0 23.0 0.00 0.00 0.00 13 1003.7
20260503204523 95 189 10.0 21.0 0.00 0.00 0.00 12 1003.8
20260503203100 95 200 17.0 22.0 0.00 0.00 0.00 11 1003.9
20260503201558 96 198 17.0 23.0 0.00 0.00 0.00 11 1004.2
20260503200038 95 173 15.0 22.0 0.00 0.00 0.00 10 1004.3
20260503194540 95 186 12.0 22.0 0.00 0.00 0.00 11 1004.3
20260503193018 96 203 15.0 25.0 0.00 0.00 0.00 10 1004.6
20260503191517 96 181 17.0 21.0 0.00 0.00 0.00 10 1004.6
20260503190055 95 221 4.0 15.0 0.00 0.00 0.00 12 1005.0
20260503184551 95 126 5.0 13.0 0.00 0.00 0.00 12 1005.2
20260503183031 94 130 9.0 14.0 0.00 0.00 0.00 12 1005.7
20260503181526 93 86 5.0 13.0 0.00 0.00 0.00 13 1005.8
20260503180004 92 132 2.0 9.0 0.00 0.00 0.00 12 1006.1
20260503174602 92 125 4.0 8.0 0.00 0.00 0.00 12 1006.2
20260503173039 91 111 5.0 8.0 0.00 0.00 0.00 12 1006.1
20260503171544 90 128 3.0 9.0 0.00 0.00 0.00 13 1006.2
20260503081538 85 283 6.0 12.0 0.00 0.00 0.00 11 1005.6
20260503071502 85 317 7.0 13.0 0.00 0.00 0.00 12 1005.9